Japanese version Home page |
Updated on June 24, 2012 |
Profile
|
Orbital ElementsEpoch = 2001 Sept. 8.0 TT T = 2001 Sept. 1.9221 TT Peri. = 181.9012 e = 0.696237 Node = 214.1070 2000.0 q = 0.945691 AU Incl. = 13.9444 a = 3.113256 AU n = 0.1794246 P = 5.49 years
|
Finding Charts
|
Magnitudes Graphm1 = 10.5 + 5 log d + 25.0 log r
|
The orbital elements are calculated by Dr. Brian G. Marsden and printed on
IAUC 8796.
|